When you browse on this site, cookies collect data to enhance your experience and personalize the content and advertising you see.
Visit our Privacy Policy to learn more. By continuing to use the site, you agree to this use of cookies and data.
  • In Slovakia
  • List of Countries
  • For 7 days
  • Water Temperature
  • Satellite Maps
  • Weather Map
  • Weather Widgets
  • user-avatar
    Login

    Hourly Weather Broszkow

    Today, 23 July, Tuesday

    Time Temperature Precipitation Wind Pressure Humidity
    00:00 +16°C° 0 mm 2 mps 751 mmHg 80%
    01:00 +15°C° 0 mm 2 mps 751 mmHg 84%
    02:00 +15°C° 0 mm 1 mps 750 mmHg 83%
    03:00 +15°C° 0 mm 1 mps 750 mmHg 82%
    04:00 +14°C° 0 mm 1 mps 750 mmHg 80%
    05:00 +15°C° 0 mm 1 mps 750 mmHg 77%
    06:00 +17°C° 0 mm 2 mps 750 mmHg 74%
    07:00 +18°C° 0 mm 2 mps 750 mmHg 70%
    08:00 +19°C° 0 mm 2 mps 750 mmHg 67%
    09:00 +20°C° 0 mm 3 mps 750 mmHg 64%
    10:00 +21°C° 0 mm 4 mps 750 mmHg 61%
    11:00 +22°C° 0 mm 4 mps 750 mmHg 61%
    12:00 +22°C° 0 mm 5 mps 750 mmHg 61%
    13:00 +22°C° 0 mm 5 mps 750 mmHg 61%
    14:00 +22°C° 0.1 mm 5 mps 750 mmHg 63%
    15:00 +22°C° 0.1 mm 5 mps 750 mmHg 64%
    16:00 +21°C° 0.1 mm 5 mps 750 mmHg 66%
    17:00 +20°C° 0 mm 4 mps 750 mmHg 71%
    18:00 +19°C° 0 mm 3 mps 749 mmHg 77%
    19:00 +18°C° 0 mm 3 mps 749 mmHg 82%
    20:00 +17°C° 0 mm 3 mps 749 mmHg 86%
    21:00 +16°C° 0 mm 3 mps 750 mmHg 90%
    22:00 +15°C° 0 mm 2 mps 750 mmHg 94%
    23:00 +15°C° 0 mm 2 mps 750 mmHg 94%

    Tomorrow, 24 July, Wednesday

    Time Temperature Precipitation Wind Pressure Humidity
    00:00 +15°C° 0 mm 2 mps 749 mmHg 95%
    01:00 +14°C° 0 mm 2 mps 749 mmHg 95%
    02:00 +14°C° 0 mm 1 mps 749 mmHg 95%
    03:00 +14°C° 0 mm 1 mps 749 mmHg 94%
    04:00 +14°C° 0 mm 1 mps 749 mmHg 94%
    05:00 +16°C° 0 mm 1 mps 749 mmHg 90%
    06:00 +18°C° 0 mm 1 mps 749 mmHg 85%
    07:00 +19°C° 0 mm 1 mps 749 mmHg 80%
    08:00 +20°C° 0 mm 1 mps 749 mmHg 76%
    09:00 +21°C° 0 mm 1 mps 750 mmHg 71%
    10:00 +23°C° 0 mm 2 mps 750 mmHg 67%
    11:00 +23°C° 0 mm 2 mps 750 mmHg 64%
    12:00 +24°C° 0 mm 2 mps 749 mmHg 61%
    13:00 +25°C° 0 mm 2 mps 749 mmHg 58%
    14:00 +25°C° 0 mm 2 mps 749 mmHg 57%
    15:00 +25°C° 0 mm 2 mps 749 mmHg 57%
    16:00 +26°C° 0 mm 2 mps 749 mmHg 56%
    17:00 +25°C° 0 mm 2 mps 749 mmHg 62%
    18:00 +23°C° 0 mm 2 mps 749 mmHg 67%
    19:00 +22°C° 0 mm 1 mps 749 mmHg 72%
    20:00 +21°C° 0 mm 1 mps 749 mmHg 76%
    21:00 +20°C° 0 mm 1 mps 750 mmHg 80%
    22:00 +19°C° 0 mm 1 mps 750 mmHg 84%
    23:00 +18°C° 0 mm 1 mps 750 mmHg 85%

    Day after tomorrow, 25 July, Thursday

    Time Temperature Precipitation Wind Pressure Humidity
    00:00 +18°C° 0 mm 1 mps 750 mmHg 86%
    01:00 +16°C° 0 mm 0 mps 750 mmHg 88%
    02:00 +16°C° 0 mm 1 mps 750 mmHg 88%
    03:00 +16°C° 0 mm 1 mps 750 mmHg 89%
    04:00 +16°C° 0 mm 1 mps 750 mmHg 89%
    05:00 +19°C° 0 mm 1 mps 750 mmHg 84%
    06:00 +20°C° 0 mm 1 mps 750 mmHg 78%
    07:00 +22°C° 0 mm 1 mps 750 mmHg 73%
    08:00 +23°C° 0.1 mm 1 mps 750 mmHg 69%
    09:00 +24°C° 0.1 mm 2 mps 750 mmHg 66%
    10:00 +25°C° 0.1 mm 2 mps 750 mmHg 62%
    11:00 +26°C° 0.1 mm 2 mps 750 mmHg 60%
    12:00 +27°C° 0.1 mm 2 mps 749 mmHg 57%
    13:00 +28°C° 0.1 mm 3 mps 749 mmHg 54%
    14:00 +27°C° 0.1 mm 3 mps 749 mmHg 54%
    15:00 +27°C° 0.1 mm 4 mps 748 mmHg 54%
    16:00 +27°C° 0.1 mm 5 mps 748 mmHg 54%
    17:00 +26°C° 0 mm 4 mps 748 mmHg 61%
    18:00 +23°C° 0 mm 4 mps 748 mmHg 68%
    19:00 +22°C° 0 mm 3 mps 748 mmHg 74%
    20:00 +20°C° 0 mm 3 mps 748 mmHg 79%
    21:00 +19°C° 0 mm 3 mps 748 mmHg 83%
    22:00 +17°C° 0 mm 3 mps 748 mmHg 88%
    23:00 +17°C° 0 mm 3 mps 748 mmHg 90%

    26 July, Friday

    Time Temperature Precipitation Wind Pressure Humidity
    00:00 +16°C° 0 mm 3 mps 748 mmHg 93%
    01:00 +16°C° 0 mm 3 mps 748 mmHg 95%
    02:00 +16°C° 0 mm 3 mps 748 mmHg 96%
    03:00 +14°C° 0 mm 3 mps 748 mmHg 96%
    04:00 +14°C° 0 mm 3 mps 748 mmHg 96%
    05:00 +16°C° 0 mm 3 mps 748 mmHg 92%
    06:00 +17°C° 0 mm 3 mps 748 mmHg 87%
    07:00 +19°C° 0 mm 3 mps 747 mmHg 82%
    08:00 +20°C° 0.1 mm 3 mps 747 mmHg 74%
    09:00 +22°C° 0.1 mm 4 mps 748 mmHg 66%
    10:00 +23°C° 0.1 mm 4 mps 748 mmHg 58%
    11:00 +23°C° 0.3 mm 4 mps 747 mmHg 59%
    12:00 +25°C° 0.3 mm 4 mps 747 mmHg 60%
    13:00 +25°C° 0.3 mm 4 mps 747 mmHg 61%
    14:00 +25°C° 0.5 mm 5 mps 746 mmHg 63%
    15:00 +25°C° 0.5 mm 5 mps 746 mmHg 64%
    16:00 +23°C° 0.5 mm 5 mps 746 mmHg 66%
    17:00 +22°C° 0.2 mm 4 mps 746 mmHg 72%
    18:00 +21°C° 0.2 mm 4 mps 746 mmHg 78%
    19:00 +20°C° 0.2 mm 3 mps 746 mmHg 84%
    20:00 +19°C° 0 mm 3 mps 746 mmHg 86%
    21:00 +19°C° 0 mm 3 mps 746 mmHg 88%
    22:00 +18°C° 0 mm 3 mps 746 mmHg 91%
    23:00 +17°C° 0 mm 3 mps 746 mmHg 92%

    27 July, Saturday

    Time Temperature Precipitation Wind Pressure Humidity
    00:00 +17°C° 0 mm 3 mps 746 mmHg 94%
    01:00 +16°C° 0 mm 3 mps 746 mmHg 96%
    02:00 +16°C° 0 mm 3 mps 746 mmHg 96%
    03:00 +16°C° 0 mm 3 mps 745 mmHg 97%
    04:00 +14°C° 0 mm 3 mps 745 mmHg 97%
    05:00 +17°C° 0 mm 3 mps 745 mmHg 93%
    06:00 +18°C° 0 mm 3 mps 746 mmHg 90%
    07:00 +19°C° 0 mm 3 mps 746 mmHg 86%
    08:00 +21°C° 0 mm 3 mps 746 mmHg 80%
    09:00 +22°C° 0 mm 3 mps 746 mmHg 74%
    10:00 +23°C° 0 mm 4 mps 746 mmHg 68%
    11:00 +25°C° 0.3 mm 4 mps 745 mmHg 66%
    12:00 +26°C° 0.3 mm 4 mps 745 mmHg 64%
    13:00 +26°C° 0.3 mm 4 mps 745 mmHg 63%
    14:00 +26°C° 0.6 mm 4 mps 744 mmHg 65%
    15:00 +26°C° 0.6 mm 4 mps 744 mmHg 66%
    16:00 +26°C° 0.6 mm 5 mps 744 mmHg 68%
    17:00 +25°C° 0.3 mm 4 mps 744 mmHg 73%
    18:00 +23°C° 0.3 mm 4 mps 744 mmHg 79%
    19:00 +22°C° 0.3 mm 3 mps 743 mmHg 84%
    20:00 +21°C° 0 mm 3 mps 744 mmHg 87%
    21:00 +20°C° 0 mm 4 mps 744 mmHg 90%
    22:00 +19°C° 0 mm 4 mps 744 mmHg 93%
    23:00 +19°C° 0 mm 4 mps 744 mmHg 94%

    28 July, Sunday

    Time Temperature Precipitation Wind Pressure Humidity
    00:00 +19°C° 0 mm 4 mps 744 mmHg 95%
    01:00 +18°C° 0 mm 3 mps 743 mmHg 95%
    02:00 +18°C° 0 mm 3 mps 743 mmHg 96%
    03:00 +18°C° 0 mm 3 mps 743 mmHg 96%
    04:00 +18°C° 0 mm 3 mps 743 mmHg 96%
    05:00 +19°C° 0 mm 4 mps 744 mmHg 92%
    06:00 +20°C° 0 mm 4 mps 744 mmHg 88%
    07:00 +21°C° 0 mm 4 mps 744 mmHg 84%
    08:00 +23°C° 0 mm 5 mps 744 mmHg 77%
    09:00 +25°C° 0 mm 5 mps 744 mmHg 69%
    10:00 +27°C° 0 mm 5 mps 745 mmHg 62%
    11:00 +28°C° 0 mm 5 mps 744 mmHg 58%
    12:00 +29°C° 0 mm 5 mps 744 mmHg 55%
    13:00 +29°C° 0 mm 5 mps 744 mmHg 52%
    14:00 +29°C° 0 mm 5 mps 744 mmHg 52%
    15:00 +29°C° 0 mm 5 mps 744 mmHg 52%
    16:00 +29°C° 0 mm 5 mps 744 mmHg 53%
    17:00 +28°C° 0 mm 4 mps 744 mmHg 60%
    18:00 +26°C° 0 mm 4 mps 744 mmHg 66%
    19:00 +25°C° 0 mm 3 mps 743 mmHg 73%
    20:00 +24°C° 0 mm 3 mps 744 mmHg 77%
    21:00 +22°C° 0 mm 3 mps 744 mmHg 80%
    22:00 +20°C° 0 mm 3 mps 744 mmHg 84%
    23:00 +20°C° 0 mm 3 mps 744 mmHg 87%
    Show more